Vorticity
16 17 17 16 13 12 11 10 11 14 17 21 22 21 17 13 12 13 15 20 24 25 23 20 17 15 13 13 9 0 -9 -13 -4 2 5 5 7 9 11 10 3 2 3 6 8 10 11 13 12 11 11 11 13 14 14 12 11 9 8 7 6 6 6 5 4 4 4 4 4
15 16 15 14 12 12 12 13 14 16 17 20 21 21 19 15 13 12 13 17 21 23 23 21 19 17 15 13 13 8 1 -9 -10 -6 -1 3 5 7 9 9 3 -0 -1 2 3 5 6 7 8 7 7 6 8 10 12 12 11 9 7 5 5 5 4 3 3 2 2 2 3
15 15 14 13 13 13 15 16 18 19 19 20 21 20 19 16 14 12 13 15 19 22 23 22 20 19 18 17 16 15 11 5 -0 -1 1 5 8 11 13 14 8 3 2 8 7 5 4 3 3 4 5 4 4 5 8 11 13 11 8 5 4 4 3 3 4 5 5 4 4
15 14 14 14 15 16 17 18 19 20 20 20 20 20 19 17 15 13 13 15 18 21 22 22 21 20 20 20 19 18 16 14 10 7 6 8 10 13 16 20 27 31 29 20 14 11 9 7 5 5 6 8 7 6 4 3 5 5 2 -0 -0 1 3 6 7 7 7 7 7
15 15 16 16 17 17 18 18 18 18 18 18 19 19 18 17 16 14 14 15 18 21 23 22 21 19 18 16 17 17 17 17 15 12 9 8 10 14 22 35 57 62 53 31 26 20 15 14 11 9 9 10 14 14 9 -0 -9 -14 -15 -13 -8 -3 2 5 6 6 7 8 8
17 17 17 18 17 17 16 15 15 15 15 16 17 17 17 16 16 15 15 15 19 21 23 23 21 19 17 14 15 18 20 20 18 16 13 8 9 14 27 47 53 44 28 19 21 18 14 10 10 9 8 8 15 22 25 17 -2 -16 -23 -21 -13 -6 -2 -1 0 2 4 7 8
17 17 16 15 14 13 12 11 12 13 14 15 16 16 16 16 15 15 15 16 19 22 24 23 22 20 17 13 14 18 23 24 22 20 18 14 9 9 10 12 5 1 -0 2 4 5 4 1 -0 -0 0 2 9 20 29 33 18 2 -9 -11 -5 -3 -4 -5 -4 -2 1 5 6
15 14 13 11 10 9 9 9 11 13 15 16 17 17 17 16 16 16 16 18 20 23 24 24 22 21 18 12 9 12 19 24 25 24 22 20 16 11 0 -18 -34 -33 -22 -9 -5 -4 -4 -4 -5 -5 -4 -1 4 10 16 19 14 7 3 4 6 4 0 -4 -3 -1 3 5 5
11 10 9 9 8 8 8 9 11 13 16 18 19 20 19 18 17 17 18 19 21 23 24 23 22 21 18 13 6 9 17 23 24 24 23 21 21 19 11 -5 -26 -35 -34 -23 -14 -10 -7 -4 -1 0 2 3 5 5 4 3 -0 -1 1 7 9 7 3 -0 0 3 6 7 5
8 8 7 7 7 7 7 9 11 14 17 20 22 22 22 21 19 19 19 19 21 23 24 23 22 21 19 15 4 3 9 19 19 19 18 18 19 20 20 15 2 -8 -15 -16 -14 -10 -4 3 7 8 9 9 7 4 0 -4 -7 -8 -6 1 5 6 6 6 6 8 9 8 5
7 6 5 4 4 5 6 8 11 15 19 22 25 25 25 23 21 20 19 19 21 23 24 24 22 21 20 18 6 -3 -4 6 9 11 12 14 14 15 17 19 17 14 11 8 4 5 7 13 14 13 11 10 10 7 3 -3 -9 -12 -12 -6 2 7 10 10 9 8 7 7 6
5 4 3 2 2 3 5 7 11 16 20 25 27 28 28 26 23 21 19 19 21 22 24 25 23 22 21 21 13 1 -9 -10 -4 2 7 11 13 13 12 12 12 14 16 20 20 19 18 18 16 13 10 9 14 14 11 4 -5 -10 -10 -4 4 10 11 7 5 4 5 7 7
3 2 1 1 2 4 6 8 12 16 21 26 30 31 30 28 25 22 20 19 20 22 25 26 25 24 24 24 21 12 1 -9 -7 -1 5 10 12 12 12 11 8 6 8 17 23 25 23 19 15 11 8 8 15 20 21 17 8 1 -0 4 9 9 6 2 3 5 8 10 9
2 2 2 3 4 6 8 10 13 17 21 27 31 32 32 29 26 23 21 19 21 23 26 28 28 28 27 27 26 22 14 4 -0 1 5 7 10 13 15 15 10 5 4 13 24 27 24 16 12 8 7 7 13 19 25 27 19 11 6 6 6 4 1 0 5 8 11 11 11
3 4 4 5 7 8 10 11 14 17 22 27 31 33 32 30 26 23 21 20 21 23 26 28 29 30 30 30 30 28 23 16 9 5 4 5 8 11 14 15 9 5 4 12 24 27 23 13 8 5 5 6 10 15 20 24 17 9 3 1 -0 -2 -2 1 6 10 12 12 11
5 6 7 8 9 10 11 12 14 17 22 27 32 33 32 29 25 22 21 20 20 22 23 24 26 27 29 31 32 32 30 26 19 13 9 8 9 11 12 13 11 7 6 10 21 24 21 12 7 5 4 5 6 9 12 15 10 3 -3 -4 -4 -4 -2 2 7 10 11 11 11
7 8 9 10 11 11 12 12 14 18 22 27 31 32 31 28 24 21 20 19 20 20 20 20 22 24 26 27 28 29 29 29 25 21 18 15 14 14 15 17 17 15 11 9 16 20 20 14 9 6 4 3 3 4 7 9 6 1 -4 -6 -5 -4 -1 4 8 10 11 11 10
8 9 10 11 12 12 12 12 14 18 22 27 30 31 29 26 22 20 20 20 21 22 22 22 23 24 24 23 20 17 16 17 19 19 18 16 14 14 14 16 18 17 14 9 13 17 19 15 10 7 5 3 2 3 5 7 5 1 -4 -6 -4 -2 1 5 7 9 9 9 10
9 11 12 12 12 11 11 12 15 18 22 25 28 28 27 24 21 20 20 23 25 27 27 27 26 26 26 24 17 11 7 9 14 17 18 16 14 14 14 15 16 16 16 14 17 20 21 17 11 8 5 3 2 3 5 8 5 2 -1 -2 -1 -0 2 4 6 7 8 9 10
10 12 13 13 12 11 11 12 15 18 21 24 26 26 25 22 19 19 21 25 29 31 31 31 28 26 25 23 18 12 7 6 9 12 14 15 17 19 21 22 22 22 22 24 27 28 26 21 15 10 6 4 4 5 6 8 7 5 4 3 2 1 2 3 5 6 8 10 10
11 13 13 13 12 11 11 13 15 18 20 22 24 24 23 21 19 18 20 24 27 30 31 31 29 26 23 19 16 14 12 10 7 5 5 6 12 18 23 23 22 22 24 27 30 31 30 26 19 13 8 6 7 7 7 8 9 9 8 7 3 1 1 3 5 7 9 10 9
11 13 13 13 12 11 12 13 15 17 19 20 21 22 22 21 19 18 18 20 22 24 25 26 26 25 22 19 16 16 17 19 17 14 11 9 13 18 21 22 21 21 23 26 29 30 30 28 23 18 14 11 10 10 9 10 10 10 8 5 2 1 1 3 6 9 10 9 7
11 12 13 13 12 12 12 13 16 17 17 17 19 22 23 22 20 18 16 16 16 17 17 17 18 19 19 18 17 18 20 23 26 26 25 22 22 23 24 24 24 26 28 30 32 32 31 30 27 23 20 17 14 13 11 10 9 7 4 1 -0 0 2 5 9 11 10 8 6
10 11 13 13 13 12 13 14 16 17 16 15 17 21 24 25 21 18 15 14 13 13 12 13 13 15 16 19 20 22 23 23 24 25 26 26 25 25 25 26 27 29 30 31 33 33 33 32 30 27 24 20 17 14 11 9 6 3 0 -2 -1 1 4 7 11 11 10 7 6
9 11 12 13 13 13 13 14 17 17 16 13 15 19 24 27 22 17 13 11 11 11 12 12 12 13 16 19 21 22 22 21 20 20 20 20 20 20 21 24 25 25 24 23 24 25 26 26 25 23 21 18 16 13 10 6 3 0 -2 -3 -1 2 6 10 12 11 9 6 6
8 10 12 13 13 13 13 15 17 18 16 12 12 16 23 29 25 18 12 9 8 9 10 11 11 13 15 17 18 19 19 18 17 15 14 13 14 15 16 17 17 16 14 13 12 12 12 13 12 12 12 12 12 10 8 5 2 0 -0 0 3 7 11 14 13 10 7 6 7
9 10 12 13 13 13 13 15 18 18 16 12 10 13 19 27 27 21 14 9 8 7 7 9 10 10 11 11 12 14 15 15 14 12 10 8 9 10 11 10 8 6 5 5 4 3 3 3 5 7 9 12 12 11 9 7 5 4 4 6 9 13 17 18 13 9 6 7 9
10 11 11 13 12 12 13 14 17 18 17 14 10 10 14 21 27 24 17 10 9 8 8 8 8 8 8 8 7 7 8 11 12 11 10 9 8 7 5 4 2 1 -0 -0 1 2 4 5 8 11 14 16 16 15 13 10 8 8 9 12 16 19 19 17 12 9 8 9 10
11 11 12 13 12 12 13 13 16 18 19 17 12 9 9 14 23 25 21 13 10 9 9 8 6 7 7 7 5 3 3 6 8 9 9 8 6 3 1 1 0 -0 -1 -0 3 7 10 13 15 17 19 19 19 17 15 13 12 13 14 17 19 19 17 14 11 11 11 11 11
12 12 12 13 12 13 13 13 15 18 20 20 15 10 7 9 17 22 24 19 13 9 8 7 6 7 7 7 7 6 6 7 8 8 7 6 3 0 -1 0 2 3 5 7 10 13 15 16 17 18 18 18 18 17 16 16 17 17 18 19 19 17 15 13 12 11 12 12 12
13 13 13 13 13 13 13 14 14 16 19 21 18 13 9 7 11 16 21 23 17 12 9 8 8 7 7 7 9 12 13 13 13 13 11 9 5 3 2 4 8 11 14 16 17 18 19 18 17 17 16 16 16 16 16 17 18 18 18 17 16 15 13 12 11 11 11 11 11
13 14 14 14 14 14 15 15 14 15 17 21 21 17 12 8 9 12 16 21 20 17 13 11 10 9 9 10 13 16 18 18 16 15 14 13 11 9 8 9 11 13 15 16 17 18 19 19 18 16 15 14 14 14 14 14 14 15 14 14 13 12 11 10 11 11 11 12 12
14 14 14 14 15 16 16 15 13 13 15 20 22 21 17 11 10 11 14 18 21 21 19 14 12 10 11 13 16 17 17 15 13 12 12 12 11 11 10 10 10 11 11 12 13 14 14 14 13 13 12 12 11 11 11 11 12 12 12 12 11 11 11 11 11 12 12 13 14
13 14 14 15 16 17 17 16 13 12 13 17 22 23 20 15 12 12 14 16 20 22 22 20 16 12 10 11 14 15 13 10 8 8 8 9 9 9 9 9 9 8 7 7 7 7 7 8 8 8 8 9 9 9 9 10 10 11 11 12 12 12 13 13 13 13 13 14 14
13 14 14 15 17 18 18 16 13 11 11 14 20 22 22 19 15 14 13 14 16 18 20 21 20 17 13 11 13 14 13 10 6 4 4 4 5 6 6 6 5 4 4 4 4 5 6 7 7 7 8 9 10 10 10 10 10 11 11 12 12 13 13 14 14 14 14 14 13
13 13 14 15 16 17 17 15 12 10 10 11 16 20 22 21 18 15 13 12 13 15 16 18 20 20 20 18 18 19 19 17 12 7 3 1 2 2 1 -1 -1 -1 0 2 4 6 8 10 11 11 12 13 13 14 14 13 12 12 12 12 13 13 13 13 13 13 13 13 13
13 13 13 14 15 15 15 13 11 9 8 8 11 15 19 20 19 17 15 13 12 12 12 14 17 19 20 21 21 22 23 23 21 18 14 10 8 6 4 3 3 4 6 8 9 11 12 14 15 15 15 16 17 17 16 16 14 13 12 12 13 13 13 13 13 13 13 13 14
13 13 12 12 12 12 12 12 10 9 7 7 9 12 14 17 18 18 16 14 13 11 10 10 12 14 15 17 18 19 21 22 24 24 23 22 22 21 20 19 19 18 18 18 17 17 16 17 17 17 17 18 18 17 17 16 14 13 12 12 13 13 13 13 14 14 14 14 15
13 13 12 11 11 10 10 10 10 9 8 8 9 10 12 14 15 16 16 15 14 12 11 10 9 10 10 12 14 15 16 18 19 21 22 23 24 25 25 25 24 23 22 21 19 18 17 17 17 17 17 18 17 16 15 14 14 13 12 12 13 13 14 15 15 14 14 14 14
14 13 13 12 11 10 9 9 9 9 9 9 9 10 11 12 13 13 13 14 14 13 12 11 10 9 9 10 11 12 13 13 15 15 16 17 17 18 19 19 19 19 19 18 17 16 15 15 15 15 16 16 15 14 14 13 13 13 13 13 14 14 14 15 15 14 14 13 13
13 13 13 13 12 11 10 10 9 9 10 10 10 11 11 11 11 11 11 12 12 12 12 11 10 9 9 9 10 11 11 11 11 12 12 12 13 13 14 14 14 15 15 15 14 14 13 12 12 13 14 14 13 13 12 12 12 13 13 14 14 14 14 14 14 14 13 12 12
Height
3004 3002 3001 3000 2998 2997 2995 2994 2993 2992 2991 2989 2988 2987 2987 2986 2985 2985 2984 2984 2984 2983 2983 2984 2984 2985 2985 2986 2987 2988 2989 2989 2989 2990 2991 2992 2993 2994 2994 2994 2994 2994 2994 2995 2995 2996 2996 2997 2997 2998 2998 2999 2999 3000 3001 3002 3002 3003 3003 3003 3004 3005 3005 3006 3007 3007 3008 3009 3009
3001 3000 2999 2997 2996 2994 2993 2992 2991 2990 2988 2987 2986 2985 2984 2983 2982 2982 2981 2981 2981 2980 2980 2980 2980 2981 2981 2982 2982 2984 2985 2986 2987 2987 2988 2988 2989 2990 2991 2991 2992 2992 2992 2992 2992 2993 2993 2994 2994 2995 2995 2996 2996 2997 2997 2998 2999 3000 3000 3000 3001 3002 3003 3004 3004 3005 3005 3006 3006
2999 2997 2996 2995 2993 2992 2991 2989 2988 2987 2986 2985 2984 2983 2982 2981 2980 2979 2978 2978 2977 2977 2976 2976 2976 2977 2977 2977 2978 2980 2981 2982 2983 2984 2984 2985 2985 2986 2987 2987 2988 2989 2989 2989 2989 2989 2990 2990 2991 2991 2992 2993 2993 2994 2994 2995 2996 2997 2997 2997 2998 2999 3000 3001 3002 3002 3002 3003 3003
2997 2995 2994 2992 2991 2990 2988 2987 2985 2984 2983 2982 2981 2980 2979 2978 2977 2976 2975 2975 2974 2974 2973 2973 2972 2973 2974 2974 2975 2976 2977 2979 2980 2981 2981 2981 2981 2982 2983 2983 2984 2984 2985 2985 2985 2986 2986 2987 2987 2988 2988 2989 2990 2991 2991 2992 2993 2994 2994 2995 2996 2997 2998 2998 2999 2999 3000 3000 3000
2995 2993 2992 2991 2989 2988 2986 2985 2983 2982 2981 2980 2978 2977 2976 2975 2974 2973 2972 2972 2971 2971 2970 2970 2969 2969 2970 2971 2972 2972 2973 2975 2976 2977 2977 2977 2978 2979 2979 2979 2979 2979 2980 2980 2981 2982 2982 2983 2984 2984 2985 2985 2986 2987 2988 2989 2990 2991 2992 2992 2993 2994 2995 2995 2996 2996 2997 2997 2997
2993 2992 2990 2989 2987 2986 2985 2983 2982 2980 2978 2977 2976 2974 2973 2972 2971 2970 2969 2968 2968 2967 2967 2967 2966 2966 2966 2968 2968 2969 2970 2971 2972 2973 2974 2974 2975 2976 2976 2975 2975 2976 2976 2977 2977 2978 2978 2979 2980 2980 2981 2982 2982 2984 2986 2987 2988 2988 2989 2989 2990 2991 2991 2992 2992 2993 2994 2994 2995
2991 2990 2988 2987 2986 2984 2983 2981 2980 2978 2976 2974 2973 2971 2970 2969 2967 2967 2966 2965 2964 2964 2964 2963 2963 2963 2963 2964 2965 2966 2966 2967 2967 2968 2970 2971 2972 2972 2972 2972 2972 2972 2972 2972 2973 2973 2974 2975 2976 2976 2977 2978 2979 2981 2982 2984 2986 2986 2987 2987 2987 2988 2988 2989 2989 2990 2991 2992 2992
2990 2988 2987 2985 2984 2982 2981 2979 2977 2975 2973 2972 2970 2968 2966 2965 2964 2963 2962 2962 2961 2961 2960 2960 2960 2960 2960 2961 2962 2963 2963 2964 2964 2965 2966 2967 2968 2969 2970 2970 2969 2969 2969 2970 2970 2971 2971 2972 2972 2972 2973 2974 2976 2978 2980 2982 2983 2984 2985 2985 2986 2986 2987 2987 2987 2988 2989 2989 2990
2988 2987 2985 2983 2982 2980 2978 2977 2974 2972 2970 2968 2966 2965 2963 2962 2961 2960 2959 2958 2957 2957 2957 2957 2956 2956 2957 2958 2959 2960 2961 2961 2961 2962 2962 2963 2964 2965 2966 2966 2966 2967 2967 2968 2968 2969 2969 2969 2970 2970 2970 2971 2972 2974 2977 2979 2980 2981 2982 2982 2983 2983 2984 2984 2985 2986 2986 2986 2987
2986 2984 2983 2981 2979 2978 2976 2974 2972 2970 2967 2965 2963 2961 2960 2958 2957 2956 2955 2955 2954 2953 2953 2953 2952 2953 2953 2954 2956 2957 2957 2958 2958 2959 2959 2959 2960 2962 2962 2963 2963 2963 2964 2965 2966 2967 2967 2967 2967 2967 2968 2969 2970 2971 2973 2975 2976 2977 2978 2979 2979 2980 2981 2981 2982 2982 2982 2983 2983
2984 2982 2981 2979 2977 2975 2973 2971 2969 2967 2964 2962 2960 2958 2956 2955 2954 2952 2952 2951 2951 2950 2949 2949 2949 2949 2949 2950 2952 2953 2954 2955 2955 2955 2956 2956 2957 2958 2959 2960 2960 2960 2961 2962 2962 2963 2964 2964 2965 2965 2965 2966 2967 2968 2970 2971 2972 2973 2974 2975 2976 2976 2977 2978 2979 2979 2979 2979 2980
2982 2980 2978 2977 2975 2972 2970 2968 2966 2963 2961 2958 2956 2954 2952 2951 2950 2949 2948 2948 2947 2947 2946 2946 2946 2945 2946 2947 2948 2949 2950 2951 2952 2952 2952 2953 2953 2954 2955 2956 2957 2958 2958 2959 2959 2960 2961 2961 2962 2962 2962 2962 2963 2965 2967 2968 2969 2970 2971 2972 2973 2974 2975 2975 2976 2976 2976 2977 2977
2980 2978 2977 2974 2972 2970 2968 2965 2963 2960 2958 2955 2953 2951 2949 2948 2947 2946 2945 2944 2944 2943 2943 2942 2942 2942 2942 2943 2944 2946 2947 2948 2949 2950 2950 2951 2951 2951 2952 2953 2954 2955 2956 2956 2957 2957 2958 2958 2959 2959 2959 2959 2960 2962 2964 2965 2967 2968 2969 2970 2971 2971 2972 2972 2973 2973 2973 2973 2974
2979 2977 2974 2972 2970 2967 2965 2963 2960 2957 2955 2952 2950 2948 2946 2944 2943 2942 2942 2941 2941 2940 2940 2939 2939 2939 2939 2940 2941 2942 2943 2945 2947 2948 2948 2949 2949 2949 2950 2951 2951 2952 2953 2954 2954 2954 2955 2955 2956 2956 2956 2957 2957 2959 2961 2962 2964 2965 2966 2967 2968 2968 2969 2969 2970 2970 2971 2971 2971
2977 2975 2972 2970 2968 2966 2963 2960 2957 2955 2952 2949 2947 2945 2943 2942 2941 2940 2939 2938 2938 2937 2937 2937 2937 2937 2937 2937 2938 2940 2941 2942 2944 2946 2946 2946 2947 2947 2947 2948 2949 2950 2951 2951 2952 2952 2952 2952 2953 2953 2954 2954 2955 2956 2957 2959 2960 2962 2963 2964 2965 2966 2966 2967 2967 2968 2968 2968 2969
2975 2973 2971 2968 2966 2963 2961 2958 2955 2952 2949 2947 2944 2942 2941 2939 2938 2937 2937 2936 2935 2935 2935 2935 2935 2935 2935 2936 2937 2937 2939 2940 2942 2942 2943 2944 2944 2945 2945 2946 2946 2947 2948 2949 2949 2949 2950 2950 2951 2951 2952 2952 2953 2953 2954 2955 2957 2958 2960 2961 2962 2963 2964 2964 2965 2965 2965 2966 2966
2973 2971 2969 2967 2964 2962 2959 2956 2953 2950 2947 2945 2942 2940 2938 2937 2936 2935 2935 2934 2933 2933 2933 2933 2933 2933 2933 2934 2934 2935 2937 2938 2939 2940 2941 2941 2942 2942 2942 2943 2943 2944 2945 2946 2947 2947 2947 2947 2948 2949 2949 2950 2951 2951 2951 2952 2953 2955 2957 2959 2960 2960 2961 2961 2962 2962 2962 2963 2963
2972 2970 2967 2965 2962 2960 2957 2954 2951 2948 2946 2943 2941 2939 2937 2936 2935 2934 2933 2933 2932 2932 2931 2931 2931 2932 2932 2932 2932 2933 2934 2936 2937 2938 2938 2939 2939 2940 2940 2940 2941 2941 2942 2942 2944 2944 2945 2945 2945 2946 2947 2948 2948 2949 2949 2950 2951 2953 2955 2957 2957 2958 2958 2958 2959 2959 2960 2960 2961
2970 2968 2966 2963 2961 2958 2955 2952 2950 2947 2944 2942 2940 2938 2936 2935 2934 2933 2932 2932 2931 2930 2930 2929 2929 2930 2930 2930 2931 2931 2932 2933 2934 2935 2936 2937 2937 2937 2938 2938 2939 2939 2939 2940 2941 2942 2942 2942 2942 2943 2945 2946 2946 2947 2947 2948 2950 2952 2953 2954 2955 2955 2955 2956 2956 2957 2957 2957 2958
2969 2967 2964 2962 2959 2957 2954 2951 2948 2946 2943 2941 2938 2937 2935 2934 2933 2932 2932 2931 2930 2929 2928 2928 2928 2928 2928 2929 2929 2930 2930 2931 2931 2932 2933 2934 2934 2935 2936 2936 2936 2937 2937 2937 2938 2939 2939 2940 2940 2941 2942 2943 2943 2944 2945 2946 2948 2950 2951 2952 2952 2952 2953 2953 2954 2954 2955 2955 2956
2967 2965 2962 2960 2957 2955 2952 2950 2947 2945 2942 2940 2938 2936 2935 2934 2932 2932 2931 2930 2929 2928 2927 2927 2927 2927 2927 2927 2928 2928 2929 2930 2930 2930 2931 2931 2932 2932 2933 2933 2934 2934 2934 2935 2936 2937 2937 2938 2938 2939 2940 2941 2941 2942 2943 2945 2947 2948 2949 2949 2949 2950 2950 2951 2951 2952 2952 2953 2953
2966 2964 2961 2959 2957 2954 2952 2949 2947 2944 2942 2939 2937 2936 2934 2933 2932 2931 2930 2929 2929 2928 2927 2926 2926 2926 2926 2926 2927 2927 2928 2928 2928 2929 2929 2930 2930 2930 2931 2931 2932 2932 2932 2933 2934 2935 2936 2936 2937 2937 2938 2938 2938 2939 2941 2943 2944 2945 2946 2946 2946 2947 2947 2947 2948 2948 2949 2950 2950
2965 2962 2960 2958 2956 2953 2951 2948 2946 2943 2941 2939 2937 2935 2934 2933 2932 2931 2930 2929 2928 2927 2927 2926 2926 2926 2926 2926 2926 2927 2927 2927 2927 2927 2927 2928 2928 2929 2930 2930 2931 2931 2932 2932 2933 2933 2934 2935 2935 2936 2936 2936 2936 2937 2939 2941 2942 2942 2942 2943 2943 2943 2944 2944 2944 2945 2946 2946 2947
2963 2961 2959 2957 2955 2952 2950 2948 2946 2943 2941 2938 2936 2935 2934 2933 2932 2931 2930 2929 2928 2928 2927 2926 2926 2926 2926 2926 2926 2926 2926 2926 2926 2926 2926 2927 2927 2928 2929 2929 2930 2930 2931 2931 2932 2932 2932 2933 2933 2933 2933 2934 2934 2936 2937 2938 2939 2939 2939 2940 2940 2941 2941 2941 2941 2942 2942 2943 2943
2962 2960 2958 2956 2954 2952 2949 2947 2945 2942 2940 2938 2936 2935 2934 2933 2932 2931 2930 2929 2928 2928 2927 2927 2926 2926 2926 2926 2925 2925 2925 2925 2925 2925 2926 2926 2927 2927 2928 2928 2928 2928 2928 2929 2930 2930 2930 2931 2931 2931 2931 2931 2932 2933 2934 2935 2936 2936 2937 2937 2937 2938 2938 2938 2938 2939 2939 2939 2940
2960 2959 2957 2955 2953 2951 2949 2947 2944 2942 2940 2937 2936 2934 2934 2933 2932 2931 2930 2929 2928 2928 2927 2927 2927 2926 2926 2926 2925 2925 2925 2924 2925 2925 2925 2925 2926 2926 2927 2927 2927 2927 2927 2927 2927 2927 2927 2927 2928 2928 2928 2929 2930 2931 2932 2932 2933 2933 2934 2934 2935 2935 2935 2936 2936 2936 2936 2937 2937
2959 2957 2956 2954 2952 2950 2948 2946 2944 2942 2939 2937 2935 2934 2933 2933 2932 2931 2930 2929 2928 2927 2927 2927 2926 2926 2926 2926 2925 2925 2924 2924 2924 2924 2924 2924 2924 2924 2925 2925 2925 2925 2925 2925 2925 2925 2925 2925 2925 2926 2926 2927 2927 2928 2929 2930 2930 2931 2931 2932 2932 2932 2932 2933 2933 2934 2934 2934 2934
2957 2956 2954 2952 2950 2948 2947 2945 2943 2941 2939 2937 2935 2933 2932 2932 2932 2931 2930 2929 2928 2927 2927 2926 2926 2925 2925 2925 2925 2924 2924 2924 2923 2923 2923 2923 2922 2922 2922 2922 2922 2923 2923 2923 2924 2924 2923 2923 2923 2923 2924 2924 2925 2926 2926 2927 2927 2928 2928 2929 2929 2930 2930 2930 2931 2931 2932 2932 2932
2956 2954 2952 2951 2949 2947 2946 2944 2942 2940 2938 2936 2934 2933 2932 2931 2931 2930 2929 2928 2928 2927 2926 2926 2925 2925 2924 2924 2924 2924 2923 2923 2923 2923 2922 2922 2922 2921 2921 2920 2920 2921 2921 2922 2922 2922 2922 2922 2922 2922 2922 2922 2922 2923 2923 2924 2924 2925 2926 2926 2927 2927 2927 2927 2928 2928 2929 2929 2929
2954 2952 2951 2949 2947 2946 2944 2943 2941 2940 2938 2936 2934 2932 2931 2930 2929 2929 2929 2928 2927 2927 2926 2925 2925 2924 2924 2924 2923 2923 2923 2922 2922 2922 2922 2921 2921 2920 2919 2919 2919 2919 2919 2920 2920 2920 2920 2920 2920 2920 2920 2920 2920 2920 2921 2921 2922 2922 2923 2923 2924 2924 2924 2925 2925 2925 2926 2926 2926
2952 2951 2949 2947 2946 2945 2943 2942 2940 2939 2937 2935 2933 2932 2930 2929 2928 2928 2928 2927 2927 2926 2925 2925 2924 2924 2923 2923 2923 2922 2922 2922 2921 2921 2920 2920 2920 2919 2919 2918 2918 2918 2918 2918 2918 2918 2918 2918 2918 2918 2918 2918 2918 2918 2918 2919 2919 2920 2920 2921 2921 2921 2922 2922 2922 2922 2922 2923 2923
2951 2949 2947 2946 2945 2943 2942 2941 2939 2938 2936 2935 2933 2931 2930 2928 2927 2927 2927 2926 2926 2925 2924 2924 2923 2923 2923 2922 2922 2921 2921 2920 2919 2919 2919 2918 2918 2917 2917 2917 2917 2916 2916 2916 2916 2916 2916 2916 2916 2916 2916 2916 2916 2916 2916 2917 2917 2917 2918 2918 2918 2918 2919 2919 2919 2919 2920 2920 2921
2949 2948 2946 2945 2943 2942 2941 2939 2938 2937 2935 2934 2932 2931 2929 2927 2926 2926 2925 2925 2924 2924 2923 2923 2922 2922 2922 2922 2921 2920 2919 2918 2918 2917 2917 2916 2916 2916 2915 2915 2915 2915 2915 2915 2915 2915 2915 2915 2914 2914 2914 2914 2914 2914 2914 2915 2915 2915 2915 2916 2916 2916 2916 2916 2917 2917 2917 2918 2918
2948 2946 2945 2943 2942 2941 2939 2938 2937 2936 2934 2933 2932 2930 2929 2927 2926 2925 2924 2924 2923 2922 2922 2922 2921 2921 2921 2921 2920 2920 2918 2917 2917 2916 2915 2915 2914 2914 2914 2913 2913 2913 2913 2913 2913 2913 2913 2913 2912 2912 2912 2912 2912 2912 2912 2912 2913 2913 2913 2913 2913 2913 2914 2914 2914 2914 2915 2915 2916
2946 2945 2943 2942 2941 2939 2938 2937 2936 2935 2933 2932 2931 2930 2928 2927 2925 2924 2923 2922 2922 2922 2921 2920 2920 2920 2919 2919 2919 2919 2918 2917 2916 2915 2914 2914 2913 2913 2913 2912 2912 2912 2912 2912 2912 2912 2912 2911 2910 2910 2910 2910 2909 2909 2909 2910 2910 2911 2911 2912 2912 2912 2912 2912 2912 2912 2913 2913 2914
2945 2943 2942 2941 2939 2938 2937 2936 2935 2934 2932 2931 2930 2929 2928 2926 2925 2924 2923 2922 2921 2920 2920 2919 2919 2918 2918 2918 2917 2917 2917 2916 2916 2915 2914 2913 2913 2912 2912 2912 2912 2912 2912 2911 2911 2910 2910 2909 2909 2908 2908 2908 2907 2907 2907 2908 2908 2909 2909 2910 2910 2910 2910 2910 2910 2910 2911 2911 2912
2943 2942 2940 2939 2938 2937 2936 2934 2933 2932 2932 2930 2929 2928 2927 2926 2925 2923 2922 2922 2920 2919 2919 2918 2917 2917 2917 2916 2916 2915 2915 2914 2914 2914 2913 2913 2912 2912 2912 2911 2911 2911 2910 2910 2909 2909 2908 2907 2907 2907 2907 2907 2907 2906 2906 2906 2906 2907 2907 2908 2908 2908 2908 2908 2908 2909 2909 2909 2909
2942 2940 2939 2938 2937 2936 2934 2933 2932 2931 2930 2929 2928 2927 2926 2925 2924 2923 2922 2921 2920 2919 2918 2917 2917 2916 2915 2915 2914 2914 2913 2913 2912 2912 2912 2911 2911 2911 2910 2910 2909 2909 2908 2908 2907 2907 2907 2906 2906 2906 2906 2906 2906 2905 2905 2905 2905 2905 2906 2906 2907 2907 2907 2907 2907 2907 2907 2907 2907
2940 2939 2938 2937 2935 2934 2933 2932 2931 2930 2929 2928 2927 2926 2925 2924 2923 2922 2921 2921 2919 2918 2917 2917 2916 2915 2914 2913 2913 2912 2912 2911 2911 2910 2910 2910 2909 2909 2908 2908 2908 2907 2907 2906 2906 2906 2905 2904 2904 2904 2905 2905 2904 2904 2903 2903 2903 2903 2904 2904 2905 2905 2905 2905 2905 2905 2905 2905 2906
2939 2938 2937 2935 2934 2933 2932 2931 2930 2929 2928 2927 2926 2925 2924 2923 2922 2921 2920 2919 2918 2917 2917 2916 2915 2914 2913 2912 2912 2911 2911 2910 2909 2909 2908 2908 2907 2907 2907 2906 2906 2906 2905 2905 2905 2904 2903 2902 2902 2903 2903 2903 2902 2902 2902 2901 2901 2902 2902 2903 2903 2904 2904 2904 2904 2903 2903 2903 2903
2938 2937 2935 2934 2933 2932 2931 2930 2929 2927 2927 2926 2924 2923 2923 2922 2921 2920 2919 2918 2917 2916 2916 2915 2914 2913 2912 2911 2910 2910 2909 2908 2908 2907 2907 2907 2906 2906 2905 2905 2904 2904 2904 2903 2903 2903 2902 2901 2901 2901 2902 2901 2901 2900 2900 2900 2900 2900 2901 2901 2902 2902 2903 2902 2902 2901 2901 2901 2901